[[{"header":{"parameterUnit":"m.s-1","parameterCategory":1,"la1":30.2991,"la2":30.254,"lo1":-89.0895,"lo2":-89.0444,"dy":0.0017,"dx":0.0017,"nx":28,"ny":28,"refTime":"2025-09-09T03:00:00:Z","depth":0,"parameterNumber":2,"parameterNumberName":"U-component_of_WINDS"},"data":[0,0,0,0,0,0,0,0,0,0,0,0,0,0,0,0,0,0,0,0,0,0,0,0,0,0,0,0,0,0,0,0,0,0,0,0,0,0,0,0,0,0,0,0,0,0,0,0,0,0,0,0,0,0,0,0,0,0,-4.2069,-4.2069,0,-4.2146,-4.2147,-4.2148,-4.21,-4.2098,-4.2096,-4.2094,-4.2174,-4.2178,-4.2182,0,0,0,0,0,0,0,0,0,0,0,0,0,-4.188,-4.1884,-4.2069,-4.207,-4.207,-4.2146,-4.2147,-4.2148,-4.2101,-4.2098,-4.2095,-4.2093,-4.2172,-4.2177,-4.2182,0,0,0,0,0,0,0,0,0,0,0,0,0,-4.196,-4.1885,-4.2068,-4.2056,-4.2055,-4.2146,-4.2147,-4.2148,-4.2101,-4.2098,-4.2094,-4.2091,-4.2171,-4.2177,-4.2183,-4.229,0,0,-4.2203,-4.2205,0,0,0,0,0,0,0,0,-4.1956,-4.1967,-4.2057,-4.2057,-4.2057,-4.211,-4.211,-4.2196,-4.2102,-4.2084,-4.2093,-4.209,-4.2155,-4.2163,-4.2185,-4.2294,-4.2297,-4.2203,-4.2207,-4.221,-4.2211,0,0,0,0,0,0,0,-4.195,-4.1964,-4.2099,-4.2058,-4.2058,-4.2047,-4.2054,-4.2126,-4.2138,-4.2085,-4.2082,-4.2092,-4.2155,-4.2179,-4.2186,-4.2299,-4.2203,-4.2209,-4.2212,-4.2215,-4.2501,-4.2505,0,0,0,0,0,0,-4.1946,-4.1959,-4.2097,-4.2102,-4.1997,-4.2053,-4.2061,-4.2096,-4.2137,-4.214,-4.2095,-4.2089,-4.217,-4.2179,-4.2189,-4.2318,-4.221,-4.2216,-4.2219,-4.2498,-4.2502,-4.2506,0,0,0,0,0,0,-4.1942,-4.1958,-4.2094,-4.203,-4.2046,-4.206,-4.2099,-4.21,-4.2124,-4.2144,-4.2146,-4.2117,-4.2167,-4.218,-4.2266,-4.232,-4.2218,-4.2224,-4.2493,-4.2499,-4.2504,-4.2577,0,0,0,0,0,0,-4.1937,-4.1957,-4.1998,-4.2031,-4.205,-4.2169,-4.2103,-4.2104,-4.2135,-4.2128,-4.2165,-4.2168,-4.2166,-4.2257,-4.2272,-4.2327,-4.2229,-4.2488,-4.2496,-4.2503,-4.257,-4.2584,-4.2597,0,0,0,0,0,-4.193,-4.2015,-4.2,-4.2017,-4.2101,-4.2172,-4.2183,-4.2178,-4.2139,-4.218,-4.2194,-4.2167,-4.2312,-4.2266,-4.2283,-4.2341,-4.2485,-4.2494,-4.2502,-4.2564,-4.2581,-4.2597,0,0,0,0,0,0,-4.1988,-4.2019,-4.2003,-4.2101,-4.2134,-4.2164,-4.2216,-4.2197,-4.2242,-4.2234,-4.2226,-4.2235,-4.2325,-4.2341,-4.2289,-4.2447,-4.2392,-4.2405,-4.2433,-4.245,-4.2464,-4.2458,-4.2235,0,0,0,0,0,-4.2012,-4.2067,-4.2091,-4.2176,-4.2193,-4.2202,-4.2233,-4.2226,-4.226,-4.2274,-4.2294,-4.2328,-4.2382,-4.2417,-4.2467,-4.2572,-4.258,-4.262,-4.2634,-4.2645,-4.2656,-4.2714,-4.2732,-4.2534,-4.2534,-4.2534,0,0,-4.2062,-4.2086,-4.2121,-4.2188,-4.2213,-4.2271,-4.2214,-4.2277,-4.2321,-4.2284,-4.2366,-4.2382,-4.242,-4.2517,-4.256,-4.2533,-4.2712,-4.2656,-4.2664,-4.2669,-4.2725,-4.2743,-4.276,-4.254,-4.2539,-4.2538,0,0,-4.2183,-4.2207,-4.228,-4.2307,-4.2345,-4.2351,-4.2368,-4.2402,-4.2411,-4.2493,-4.2467,-4.2519,-4.261,-4.2639,-4.2666,-4.28,-4.2778,-4.2816,-4.2888,-4.2944,-4.296,-4.2974,-4.3023,-4.304,-4.2827,-4.2827,-4.2828,0,-4.2241,-4.2327,-4.232,-4.2386,-4.2417,-4.2386,-4.2461,-4.2487,-4.2541,-4.2563,-4.2532,-4.2647,-4.267,-4.2774,-4.2807,-4.2829,-4.285,-4.2812,-4.2958,-4.2972,-4.2985,-4.3031,-4.305,-4.2832,-4.2831,-4.2831,-4.283,0,-4.2397,-4.2457,-4.2511,-4.2564,-4.2601,-4.2671,-4.2675,-4.2713,-4.2704,-4.2713,-4.2798,-4.2825,-4.2881,-4.2905,-4.2896,-4.3008,-4.299,-4.2959,-4.2904,-4.3008,-4.3052,-4.307,-4.2838,-4.2837,-4.2835,-4.2834,0,0,-4.2556,-4.2605,-4.2625,-4.2649,-4.269,-4.2737,-4.2806,-4.2861,-4.2894,-4.2932,-4.2991,-4.307,-4.3042,-4.3072,-4.3066,-4.3116,-4.3222,-4.3079,-4.308,-4.3106,-4.3348,-4.3372,-4.3393,-4.3208,-4.3211,-4.3214,-4.3346,0,-4.268,-4.2801,-4.2797,-4.291,-4.2966,-4.2939,-4.2999,-4.3032,-4.3042,-4.3092,-4.3104,-4.316,-4.3118,-4.3137,-4.3185,-4.3199,-4.3271,-4.319,-4.3263,-4.3266,-4.3255,-4.3415,-4.344,-4.3563,-4.3362,-4.3365,-4.3367,0,-4.2842,-4.2886,-4.3004,-4.3039,-4.3062,-4.3116,-4.3167,-4.3214,-4.3251,-4.3255,-4.329,-4.3277,-4.3348,-4.3291,-4.3389,-4.3334,-4.3364,-4.3376,-4.338,-4.3387,-4.3323,-4.3427,-4.3602,-4.3621,-4.3394,-4.3392,-4.339,0,-4.2947,-4.3036,-4.3119,-4.314,-4.3182,-4.3221,-4.3241,-4.3274,-4.3307,-4.3352,-4.3373,-4.3426,-4.3454,-4.3495,-4.3497,-4.3455,-4.3597,-4.3539,-4.3603,-4.3604,-4.3635,-4.3633,-4.3817,-4.3653,-4.3653,-4.3652,-4.3652,0,-4.3087,-4.3161,-4.3167,-4.3218,-4.33,-4.3296,-4.3377,-4.3393,-4.3423,-4.3477,-4.3457,-4.3508,-4.3507,-4.3559,-4.3561,-4.3643,-4.3656,-4.3662,-4.3662,-4.3664,-4.3664,-4.3684,-4.3676,-4.3657,-4.3656,-4.3655,-4.3654,0,-4.3219,-4.3226,-4.3314,-4.3347,-4.3357,-4.3417,-4.3445,-4.3494,-4.3502,-4.3571,-4.3587,-4.3602,-4.3662,-4.3668,-4.3739,-4.374,-4.384,-4.383,-4.3827,-4.3826,-4.389,-4.3884,-4.4094,-4.4122,-4.3939,-4.3941,-4.3942,0,-4.3308,-4.3364,-4.3403,-4.3438,-4.346,-4.3516,-4.355,-4.3548,-4.3585,-4.3632,-4.3676,-4.3734,-4.3781,-4.388,-4.3897,-4.3952,-4.3943,-4.4013,-4.3951,-4.3953,-4.3946,-4.3943,-4.3949,-4.4025,-4.4027,-4.4029,-4.403,0,-4.3466,-4.3467,-4.3517,-4.3569,-4.3611,-4.3652,-4.369,-4.372,-4.3723,-4.3765,-4.3827,-4.3864,-4.3936,-4.3996,-4.4049,-4.407,-4.4052,-4.405,-4.4068,-4.4071,-4.4068,-4.4072,-4.3861,-4.4045,-4.4044,-4.4042,-4.4042,-4.4041,-4.358,-4.3629,-4.3664,-4.3722,-4.375,-4.3787,-4.3835,-4.385,-4.3902,-4.3961,-4.3956,-4.4025,-4.4062,-4.4132,-4.4157,-4.4211,-4.4188,-4.4213,-4.422,-4.4226,-4.4234,-4.4059,-4.4221,-4.422,-4.422,-4.422,-4.4219,0,-4.3737,-4.3759,-4.3811,-4.3866,-4.3911,-4.389,-4.3932,-4.3971,-4.4032,-4.4067,-4.4114,-4.4187,-4.4244,-4.4266,-4.4323,-4.4362,-4.4356,-4.4377,-4.4375,-4.438,-4.4251,-4.423,-4.4382,-4.4382,-4.4382,-4.4382,-4.4382,-4.4382,-4.3824,-4.3907,-4.3913,-4.401,-4.4031,-4.4098,-4.4124,-4.4158,-4.4187,-4.4268,-4.4316,-4.433,-4.4361,-4.442,-4.4472,-4.4477,-4.4499,-4.4525,-4.4527,-4.4405,-4.4389,-4.4373,-4.4354,-4.453,-4.453,-4.4652,-4.4653,-4.4654]},{"header":{"parameterUnit":"m.s-1","parameterCategory":1,"la1":30.2991,"la2":30.254,"lo1":-89.0895,"lo2":-89.0444,"dy":0.0017,"dx":0.0017,"nx":28,"ny":28,"refTime":"2025-09-09T03:00:00:Z","depth":0,"parameterNumber":3,"parameterNumberName":"V-component_of_WINDS"},"data":[0,0,0,0,0,0,0,0,0,0,0,0,0,0,0,0,0,0,0,0,0,0,0,0,0,0,0,0,0,0,0,0,0,0,0,0,0,0,0,0,0,0,0,0,0,0,0,0,0,0,0,0,0,0,0,0,0,0,-1.8236,-1.8236,0,-1.8199,-1.8199,-1.8199,-1.8131,-1.813,-1.8129,-1.8127,-1.8091,-1.8092,-1.8092,0,0,0,0,0,0,0,0,0,0,0,0,0,-1.8249,-1.825,-1.8236,-1.8236,-1.8235,-1.82,-1.8199,-1.8199,-1.8131,-1.813,-1.8128,-1.8127,-1.8091,-1.8092,-1.8092,0,0,0,0,0,0,0,0,0,0,0,0,0,-1.8231,-1.825,-1.8236,-1.8198,-1.8194,-1.82,-1.8199,-1.8198,-1.8132,-1.813,-1.8128,-1.8126,-1.8091,-1.8092,-1.8092,-1.8133,0,0,-1.8093,-1.8093,0,0,0,0,0,0,0,0,-1.8232,-1.8231,-1.8204,-1.82,-1.8196,-1.8168,-1.819,-1.8177,-1.8132,-1.8155,-1.8127,-1.8125,-1.8119,-1.8117,-1.8114,-1.8131,-1.813,-1.8093,-1.8093,-1.8093,-1.8094,0,0,0,0,0,0,0,-1.8234,-1.8232,-1.8222,-1.8203,-1.8199,-1.8182,-1.8178,-1.8187,-1.8148,-1.8153,-1.8148,-1.8145,-1.8116,-1.8114,-1.8113,-1.8129,-1.8093,-1.8093,-1.8094,-1.8094,-1.8178,-1.818,0,0,0,0,0,0,-1.8241,-1.8234,-1.8223,-1.8221,-1.821,-1.8184,-1.8178,-1.8179,-1.8148,-1.8141,-1.8146,-1.8142,-1.8114,-1.8112,-1.8111,-1.8157,-1.8093,-1.8094,-1.8094,-1.8176,-1.8179,-1.8181,0,0,0,0,0,0,-1.8241,-1.824,-1.8224,-1.8226,-1.8222,-1.8185,-1.8187,-1.8179,-1.8177,-1.8143,-1.8136,-1.8151,-1.8112,-1.8111,-1.8128,-1.8155,-1.8094,-1.8094,-1.8174,-1.8177,-1.818,-1.825,0,0,0,0,0,0,-1.8242,-1.8241,-1.8256,-1.8227,-1.8223,-1.8242,-1.8188,-1.818,-1.8177,-1.8171,-1.8145,-1.8139,-1.8111,-1.8128,-1.8128,-1.8154,-1.8095,-1.8171,-1.8175,-1.8179,-1.8245,-1.8255,-1.8264,0,0,0,0,0,-1.8242,-1.8278,-1.8257,-1.8256,-1.8241,-1.8244,-1.8241,-1.8207,-1.818,-1.8195,-1.8173,-1.814,-1.8152,-1.813,-1.813,-1.8157,-1.8169,-1.8174,-1.8178,-1.8241,-1.8253,-1.8263,0,0,0,0,0,0,-1.8313,-1.8273,-1.825,-1.8277,-1.8264,-1.8232,-1.825,-1.8221,-1.8216,-1.8211,-1.8169,-1.8164,-1.8187,-1.8173,-1.815,-1.8195,-1.8155,-1.816,-1.8203,-1.8214,-1.8223,-1.8226,-1.8095,0,0,0,0,0,-1.8331,-1.8336,-1.8302,-1.8329,-1.8323,-1.8288,-1.8288,-1.8263,-1.8248,-1.8242,-1.8221,-1.8209,-1.8209,-1.8211,-1.8209,-1.8242,-1.8236,-1.8261,-1.827,-1.8278,-1.8283,-1.8299,-1.8309,-1.8196,-1.8196,-1.8196,0,0,-1.837,-1.8349,-1.8355,-1.8342,-1.8329,-1.8336,-1.8284,-1.8293,-1.8298,-1.8244,-1.8259,-1.8243,-1.8226,-1.8251,-1.8261,-1.8241,-1.8312,-1.8283,-1.829,-1.829,-1.8305,-1.8315,-1.8325,-1.8199,-1.8198,-1.8198,0,0,-1.8443,-1.8428,-1.8448,-1.8436,-1.8417,-1.8393,-1.8398,-1.837,-1.8357,-1.8371,-1.8331,-1.8336,-1.8338,-1.8327,-1.8322,-1.839,-1.836,-1.8391,-1.8439,-1.8456,-1.8465,-1.8472,-1.8497,-1.8506,-1.8395,-1.8396,-1.8396,0,-1.8494,-1.8501,-1.8463,-1.8474,-1.847,-1.842,-1.8441,-1.8431,-1.8413,-1.8411,-1.8388,-1.8389,-1.8374,-1.8396,-1.8412,-1.841,-1.8414,-1.8394,-1.8466,-1.8474,-1.848,-1.8503,-1.8513,-1.8399,-1.8399,-1.8399,-1.8398,0,-1.8565,-1.8571,-1.859,-1.8572,-1.857,-1.8586,-1.855,-1.8552,-1.8527,-1.8505,-1.852,-1.85,-1.8494,-1.8497,-1.8472,-1.8515,-1.8503,-1.8474,-1.8434,-1.8496,-1.8517,-1.8525,-1.8405,-1.8404,-1.8403,-1.8402,0,0,-1.8683,-1.8643,-1.8651,-1.8642,-1.8616,-1.862,-1.8634,-1.8627,-1.8629,-1.8618,-1.8629,-1.8631,-1.8603,-1.8597,-1.8571,-1.8585,-1.864,-1.8554,-1.8553,-1.8571,-1.8687,-1.871,-1.8721,-1.862,-1.8621,-1.8622,-1.8688,0,-1.8752,-1.8772,-1.8737,-1.8767,-1.8772,-1.8724,-1.8735,-1.8721,-1.8701,-1.8702,-1.868,-1.8683,-1.8646,-1.8642,-1.8654,-1.8631,-1.8663,-1.8626,-1.863,-1.863,-1.8637,-1.8731,-1.8756,-1.8819,-1.8696,-1.8698,-1.8699,0,-1.8835,-1.8827,-1.8856,-1.8828,-1.8829,-1.884,-1.883,-1.8832,-1.8815,-1.8799,-1.8792,-1.876,-1.8772,-1.8732,-1.8747,-1.8723,-1.8722,-1.8711,-1.8712,-1.8712,-1.8669,-1.8735,-1.8838,-1.8849,-1.8711,-1.871,-1.8709,0,-1.8919,-1.8915,-1.8932,-1.8926,-1.8893,-1.8902,-1.8889,-1.887,-1.8867,-1.8859,-1.8857,-1.885,-1.8847,-1.8842,-1.881,-1.8784,-1.8829,-1.8786,-1.8817,-1.8818,-1.883,-1.883,-1.8936,-1.8828,-1.8828,-1.8827,-1.8827,0,-1.9,-1.902,-1.8969,-1.898,-1.9001,-1.896,-1.8982,-1.8964,-1.8947,-1.8953,-1.8911,-1.8918,-1.8874,-1.8876,-1.885,-1.8867,-1.8866,-1.8854,-1.8847,-1.8858,-1.886,-1.8858,-1.8853,-1.883,-1.8829,-1.8829,-1.8828,0,-1.9098,-1.9065,-1.908,-1.9047,-1.9039,-1.9056,-1.9028,-1.9037,-1.9013,-1.9022,-1.9022,-1.8985,-1.8986,-1.8952,-1.8946,-1.8928,-1.8956,-1.8941,-1.8963,-1.8958,-1.899,-1.8988,-1.91,-1.9113,-1.8996,-1.8997,-1.8998,0,-1.9152,-1.9166,-1.9135,-1.9136,-1.9124,-1.9127,-1.9124,-1.9084,-1.9082,-1.9063,-1.9074,-1.907,-1.9066,-1.9068,-1.9042,-1.9036,-1.9021,-1.9061,-1.902,-1.9031,-1.9023,-1.9023,-1.9024,-1.907,-1.9071,-1.9072,-1.9073,0,-1.9252,-1.9235,-1.9232,-1.9224,-1.9221,-1.9213,-1.9202,-1.9205,-1.9161,-1.9162,-1.9161,-1.9157,-1.915,-1.9147,-1.9137,-1.9123,-1.9092,-1.9086,-1.9093,-1.9105,-1.9117,-1.9112,-1.8987,-1.9084,-1.9083,-1.9082,-1.9082,-1.9081,-1.9331,-1.9341,-1.932,-1.9318,-1.9305,-1.9296,-1.9302,-1.9279,-1.9277,-1.9268,-1.9244,-1.9248,-1.9229,-1.9211,-1.92,-1.9202,-1.9183,-1.9193,-1.9195,-1.9199,-1.9205,-1.9116,-1.92,-1.92,-1.92,-1.9199,-1.9199,0,-1.9429,-1.9413,-1.9412,-1.9397,-1.9395,-1.9364,-1.935,-1.9351,-1.9354,-1.9339,-1.9335,-1.9334,-1.933,-1.9303,-1.9297,-1.9304,-1.9289,-1.9303,-1.9303,-1.93,-1.9223,-1.9218,-1.9315,-1.9315,-1.9315,-1.9315,-1.9315,-1.9315,-1.948,-1.9496,-1.9476,-1.9485,-1.9468,-1.9471,-1.9465,-1.9456,-1.9443,-1.9444,-1.9441,-1.9423,-1.9402,-1.9394,-1.939,-1.9382,-1.9382,-1.9401,-1.9389,-1.9317,-1.9306,-1.9295,-1.929,-1.9402,-1.9402,-1.9466,-1.9467,-1.9467]}]]